Latest Weather Observations for Barrow Island

IDW60801

Issued at 8:02 pm WST Tuesday 27 January 2015 (issued every 30 minutes, with the page automatically refreshed every 10 minutes)

About weather observations | Map of weather stations | Latest weather observations for WA | Other Formats
Station Details ID: 005094 Name: BARROW ISLAND AIRPORT Lat: -20.88 Lon: 115.41 Height: 6.4 m
Data from the previous 72 hours. | See also: Recent months at Barrow Island
Date/Time
WST
Temp
°C
App
Temp
°C
Dew
Point
Rel
Hum
%
Delta-T
°C
Wind Press
QNH
hPa
Press
MSL
hPa
Rain
since 9 am
mm
Dir
 
Spd
km/h
Gust
km/h
Spd
kts
Gust
kts
27/08:00pm 26.1 25.4 20.2 70 3.9 W 24 32 13 17 1006.1 - 0.0
27/07:30pm 26.3 25.2 20.2 69 4.0 WSW 26 32 14 17 1005.8 - 0.0
27/07:00pm 26.6 24.9 19.7 66 4.5 WSW 28 35 15 19 1005.7 - 0.0
27/06:30pm 27.2 25.7 19.5 62 5.0 W 26 33 14 18 1005.8 - 0.0
27/06:00pm 27.9 26.4 19.4 60 5.5 W 26 33 14 18 1005.6 1005.6 0.0
27/05:30pm 28.1 26.7 19.6 60 5.5 WSW 26 33 14 18 1005.6 - 0.0
27/05:00pm 28.9 26.9 19.2 55 6.3 W 28 35 15 19 1005.3 - 0.0
27/04:30pm 29.2 27.2 19.2 54 6.5 W 28 37 15 20 1005.1 - 0.0
27/04:00pm 29.4 27.9 20.3 58 6.0 WSW 28 37 15 20 1005.0 - 0.0
27/03:30pm 29.3 27.4 19.3 55 6.5 WSW 28 37 15 20 1005.5 - 0.0
27/03:00pm 29.7 27.5 18.8 52 7.1 WSW 28 37 15 20 1005.8 1005.8 0.0
27/02:30pm 29.9 28.2 19.9 55 6.6 WSW 28 37 15 20 1005.8 - 0.0
27/02:00pm 29.6 28.0 19.3 54 6.7 WSW 26 33 14 18 1006.1 - 0.0
27/01:30pm 29.8 28.9 19.8 55 6.6 WSW 24 32 13 17 1006.1 - 0.0
27/01:00pm 30.1 28.5 19.2 52 7.1 WSW 26 35 14 19 1006.4 - 0.0
27/12:30pm 29.6 29.1 19.0 53 6.9 SW 20 32 11 17 1006.9 - 0.0
27/12:00pm 29.7 28.2 18.5 51 7.2 WSW 24 32 13 17 1007.1 1007.1 0.0
27/11:30am 30.1 29.9 19.8 54 6.8 WSW 20 32 11 17 1007.7 - 0.0
27/11:00am 29.3 29.1 19.3 55 6.5 SW 19 28 10 15 1008.0 - 0.0
27/10:30am 28.6 28.4 18.4 54 6.5 W 17 28 9 15 1008.2 - 0.0
27/10:00am 28.1 27.9 19.3 58 5.7 SW 19 28 10 15 1008.1 - 0.0
27/09:30am 27.3 27.0 18.3 58 5.7 WSW 17 26 9 14 1008.2 - 0.0
27/09:00am 27.2 27.1 18.8 60 5.4 W 17 24 9 13 1008.2 1008.2 0.0
27/08:30am 26.7 26.2 18.6 61 5.2 SW 19 28 10 15 1008.0 - 0.0
27/08:00am 26.0 25.3 18.2 62 4.9 W 19 24 10 13 1008.1 - 0.0
27/07:30am 25.8 26.2 19.0 66 4.4 W 15 19 8 10 1007.8 - 0.0
27/07:00am 25.4 26.7 19.3 69 3.9 WSW 11 17 6 9 1007.4 - 0.0
27/06:30am 25.0 25.8 19.1 70 3.8 WSW 13 17 7 9 1007.2 - 0.0
27/06:00am 24.7 25.2 19.3 72 3.5 WSW 15 17 8 9 1006.9 1006.9 0.0
27/05:30am 24.9 25.9 19.5 72 3.5 WSW 13 17 7 9 1006.6 - 0.0
27/05:00am 24.8 25.1 19.6 73 3.3 WSW 17 22 9 12 1006.4 - 0.0
27/04:30am 25.0 25.3 19.6 72 3.5 WSW 17 24 9 13 1006.2 - 0.0
27/04:00am 25.2 24.6 19.8 72 3.5 WSW 22 26 12 14 1006.3 - 0.0
27/03:30am 25.1 24.5 19.7 72 3.5 WSW 22 30 12 16 1006.2 - 0.0
27/03:00am 25.0 24.4 19.8 73 3.4 WSW 22 28 12 15 1006.2 1006.2 0.0
27/02:30am 25.1 23.9 20.1 74 3.2 SW 26 33 14 18 1006.2 - 0.0
27/02:00am 25.4 24.5 20.6 75 3.1 WSW 26 30 14 16 1006.3 - 0.0
27/01:30am 25.3 23.9 20.5 75 3.1 WSW 28 33 15 18 1006.2 - 0.0
27/01:00am 25.3 23.7 20.8 76 3.0 WSW 30 37 16 20 1006.2 - 0.0
27/12:30am 25.3 24.5 20.8 76 3.0 WSW 26 32 14 17 1006.4 - 0.0
27/12:00am 25.5 24.8 21.0 76 3.0 WSW 26 32 14 17 1006.9 1006.9 0.0
 
Date/Time
WST
Temp
°C
App
Temp
°C
Dew
Point
Rel
Hum
%
Delta-T
°C
Wind Press
QNH
hPa
Press
MSL
hPa
Rain
since 9 am
mm
Dir
 
Spd
km/h
Gust
km/h
Spd
kts
Gust
kts
26/11:30pm 25.6 24.5 21.1 76 3.0 WSW 28 33 15 18 1007.0 - 0.0
26/11:00pm 25.6 24.6 21.3 77 2.8 WSW 28 35 15 19 1006.9 - 0.0
26/10:30pm 25.6 24.3 21.3 77 2.8 WSW 30 37 16 20 1006.8 - 0.0
26/10:00pm 25.7 24.9 21.6 78 2.7 WSW 28 35 15 19 1006.6 - 0.0
26/09:30pm 25.7 24.8 21.4 77 2.8 WSW 28 35 15 19 1006.4 - 0.0
26/09:00pm 26.0 25.2 21.7 77 2.9 W 28 35 15 19 1006.2 1006.2 0.0
26/08:30pm 26.0 25.6 21.7 77 2.9 W 26 35 14 19 1006.1 - 0.0
26/08:00pm 26.1 25.2 21.5 76 3.1 W 28 35 15 19 1005.8 - 0.0
26/07:30pm 26.3 25.5 21.7 76 3.1 W 28 35 15 19 1005.7 - 0.0
26/07:00pm 26.6 25.7 21.4 73 3.5 W 28 35 15 19 1005.5 - 0.0
26/06:30pm 27.2 26.6 21.2 69 4.0 W 26 35 14 19 1005.5 - 0.0
26/06:00pm 27.9 27.8 21.4 67 4.3 W 24 33 13 18 1005.5 1005.5 0.0
26/05:30pm 28.6 28.3 21.9 67 4.5 W 26 33 14 18 1005.4 - 0.0
26/05:00pm 29.6 29.7 21.8 63 5.3 W 24 33 13 18 1005.2 - 0.0
26/04:30pm 30.6 31.1 21.9 59 5.9 WNW 22 32 12 17 1005.1 - 0.0
26/04:00pm 30.7 31.4 21.5 58 6.2 WNW 20 32 11 17 1005.0 - 0.0
26/03:30pm 31.6 32.5 22.0 56 6.5 WNW 20 28 11 15 1005.1 - 0.0
26/03:00pm 32.2 34.2 22.3 56 6.8 WNW 15 32 8 17 1005.3 1005.3 0.0
26/02:30pm 30.8 31.9 22.4 61 5.7 WSW 20 30 11 16 1005.3 - 0.0
26/02:00pm 30.5 32.6 22.4 62 5.5 WSW 15 24 8 13 1005.6 - 0.0
26/01:30pm 30.1 32.3 23.3 67 4.7 WSW 17 20 9 11 1006.0 - 0.0
26/01:00pm 28.7 31.8 22.9 71 4.0 S 11 17 6 9 1006.4 - 0.0
26/12:30pm 29.4 32.8 23.3 69 4.2 SSW 11 20 6 11 1006.6 - 0.0
26/12:00pm 29.8 31.6 22.5 65 5.0 SW 17 20 9 11 1006.5 1006.5 0.0
26/11:30am 31.1 32.4 22.7 61 5.7 WSW 20 30 11 16 1006.5 - 0.0
26/11:00am 30.3 33.5 23.7 68 4.6 E 13 20 7 11 1006.9 - 0.0
26/10:30am 29.4 33.0 23.1 69 4.3 ESE 9 11 5 6 1007.3 - 0.0
26/10:00am 29.7 33.5 23.4 69 4.3 SE 9 11 5 6 1007.7 - 0.0
26/09:30am 29.1 32.7 23.1 70 4.1 S 9 11 5 6 1007.7 - 0.0
26/09:00am 28.6 32.1 22.8 71 4.0 SW 9 15 5 8 1007.4 1007.4 0.0
26/08:30am 28.2 30.7 23.1 74 3.5 SSW 15 19 8 10 1007.3 - 0.0
26/08:00am 27.8 29.3 22.7 74 3.5 SW 19 22 10 12 1006.8 - 0.0
26/07:30am 27.2 28.5 22.4 75 3.2 WSW 19 24 10 13 1006.4 - 0.0
26/07:00am 26.7 28.0 22.3 77 3.0 WSW 19 24 10 13 1006.3 - 0.0
26/06:30am 25.7 27.7 22.2 81 2.3 WSW 15 26 8 14 1006.0 - 0.0
26/06:00am 25.6 27.2 22.1 81 2.3 WSW 17 20 9 11 1005.8 1005.8 0.0
26/05:30am 25.5 26.6 22.0 81 2.3 WSW 19 24 10 13 1005.4 - 0.0
26/05:00am 25.6 26.9 22.3 82 2.2 WSW 19 22 10 12 1005.2 - 0.0
26/04:30am 25.5 26.8 22.6 84 2.0 WSW 20 26 11 14 1005.1 - 0.0
26/04:00am 25.6 26.9 22.7 84 2.0 WSW 20 24 11 13 1004.9 - 0.0
26/03:30am 25.7 26.3 22.8 84 2.0 WSW 24 30 13 16 1004.7 - 0.0
26/03:00am 25.5 27.1 22.8 85 1.8 W 19 24 10 13 1005.0 1005.0 0.0
26/02:30am 25.5 26.8 22.6 84 2.0 W 20 24 11 13 1005.3 - 0.0
26/02:00am 25.8 27.7 22.7 83 2.1 W 17 24 9 13 1005.6 - 0.0
26/01:30am 25.8 27.7 22.7 83 2.1 W 17 20 9 11 1005.8 - 0.0
26/01:00am 25.5 27.6 22.4 83 2.1 W 15 20 8 11 1005.7 - 0.0
26/12:30am 25.1 27.5 22.2 84 1.9 W 13 17 7 9 1005.8 - 0.0
26/12:00am 25.0 27.7 22.1 84 1.9 W 11 15 6 8 1006.2 1006.2 0.0
 
Date/Time
WST
Temp
°C
App
Temp
°C
Dew
Point
Rel
Hum
%
Delta-T
°C
Wind Press
QNH
hPa
Press
MSL
hPa
Rain
since 9 am
mm
Dir
 
Spd
km/h
Gust
km/h
Spd
kts
Gust
kts
25/11:30pm 25.4 28.3 22.5 84 2.0 WNW 11 13 6 7 1006.4 - 0.0
25/11:00pm 25.6 28.1 22.5 83 2.1 W 13 15 7 8 1006.7 - 0.0
25/10:30pm 25.8 28.8 22.7 83 2.1 W 11 15 6 8 1006.8 - 0.0
25/10:00pm 26.0 29.4 22.7 82 2.2 W 9 13 5 7 1007.1 - 0.0
25/09:30pm 26.2 29.3 22.9 82 2.2 W 11 15 6 8 1006.9 - 0.0
25/09:00pm 26.3 28.6 22.8 81 2.4 W 15 20 8 11 1006.9 1006.9 0.0
25/08:30pm 26.6 28.7 23.1 81 2.4 W 17 20 9 11 1007.1 - 0.0
25/08:00pm 26.8 29.9 22.8 79 2.7 W 11 17 6 9 1007.3 - 0.0
25/07:30pm 27.1 29.4 22.7 77 3.0 W 15 20 8 11 1006.9 - 0.0
25/07:00pm 27.6 29.2 22.8 75 3.3 W 19 22 10 12 1006.3 - 0.0
25/06:30pm 28.4 28.9 23.3 74 3.5 WSW 26 32 14 17 1005.9 - 0.0
25/06:00pm 28.9 29.8 23.3 72 3.8 W 24 30 13 16 1005.5 1005.5 0.0
25/05:30pm 29.2 29.4 23.4 71 4.0 W 28 37 15 20 1005.1 - 0.0
25/05:00pm 30.7 31.4 23.6 66 4.9 W 26 33 14 18 1004.7 - 0.0
25/04:30pm 32.2 32.5 22.9 58 6.4 W 26 33 14 18 1004.5 - 0.0
25/04:00pm 32.7 32.6 22.2 54 7.2 W 26 32 14 17 1005.0 - 0.0
25/03:30pm 32.8 33.0 22.0 53 7.4 W 24 30 13 16 1005.2 - 0.0
25/03:00pm 33.5 34.0 22.0 51 7.9 W 22 30 12 16 1005.3 1005.3 0.0
25/02:30pm 32.3 32.5 22.7 57 6.6 WSW 26 33 14 18 1005.9 - 0.0
25/02:00pm 32.1 32.3 22.8 58 6.4 W 26 32 14 17 1005.7 - 0.0
25/01:30pm 31.1 29.9 22.7 61 5.7 WSW 33 41 18 22 1005.5 - 0.0
25/01:00pm 31.6 31.1 22.9 60 6.0 W 30 39 16 21 1005.6 - 0.0
25/12:30pm 31.4 31.0 23.0 61 5.8 WSW 30 35 16 19 1005.8 - 0.0
25/12:00pm 31.7 32.0 23.0 60 6.0 W 26 32 14 17 1006.0 1006.0 0.0
25/11:30am 30.7 31.7 22.8 62 5.4 WSW 22 30 12 16 1006.3 - 0.0
25/11:00am 30.3 30.6 23.0 65 5.0 W 26 33 14 18 1006.6 - 0.0
25/10:30am 30.7 31.9 23.9 67 4.7 WSW 24 32 13 17 1006.8 - 0.0
25/10:00am 30.7 32.6 24.4 69 4.4 SW 22 30 12 16 1006.7 - 0.0
25/09:30am 30.5 31.8 23.4 66 4.9 WSW 22 30 12 16 1006.4 - 0.0
25/09:00am 29.9 30.7 23.1 67 4.7 WSW 24 30 13 16 1006.6 1006.6 0.0
25/08:30am 29.4 30.7 23.3 69 4.2 SW 22 30 12 16 1006.4 - 0.0
25/08:00am 29.0 29.9 23.4 72 3.8 SW 24 28 13 15 1006.2 - 0.0
25/07:30am 28.8 28.8 23.0 71 4.0 WSW 28 33 15 18 1005.5 - 0.0
25/07:00am 27.8 29.4 23.2 76 3.1 WSW 20 28 11 15 1005.3 - 0.0
25/06:30am 26.7 28.3 23.2 81 2.4 WSW 20 24 11 13 1005.0 - 0.0
25/06:00am 26.1 27.8 23.4 85 1.8 W 20 24 11 13 1004.7 1004.7 0.0
25/05:30am 25.9 28.6 23.4 86 1.7 W 15 19 8 10 1004.6 - 0.0
25/05:00am 26.4 29.2 23.7 85 1.9 W 15 22 8 12 1004.3 - 0.0
25/04:30am 27.0 30.1 24.1 84 2.0 W 15 19 8 10 1004.2 - 0.0
25/04:00am 27.4 30.0 24.0 82 2.3 WSW 17 20 9 11 1004.1 - 0.0
25/03:30am 27.8 29.8 24.0 80 2.6 SW 20 24 11 13 1004.2 - 0.0
25/03:00am 28.2 30.2 24.0 78 2.9 SSW 20 24 11 13 1004.8 1004.8 0.0
25/02:30am 28.2 29.6 23.6 76 3.2 S 22 28 12 15 1005.1 - 0.0
25/02:00am 28.0 28.3 23.6 77 3.0 SW 28 33 15 18 1004.5 - 0.0
25/01:30am 27.9 27.6 23.3 76 3.1 SW 30 39 16 21 1004.0 - 0.0
25/01:00am 27.8 27.0 23.0 75 3.3 WSW 32 39 17 21 1004.0 - 0.0
25/12:30am 27.8 26.8 22.7 74 3.5 SW 32 39 17 21 1004.5 - 0.0
25/12:00am 27.8 27.2 22.7 74 3.5 SW 30 39 16 21 1004.8 1004.8 0.0
 
Date/Time
WST
Temp
°C
App
Temp
°C
Dew
Point
Rel
Hum
%
Delta-T
°C
Wind Press
QNH
hPa
Press
MSL
hPa
Rain
since 9 am
mm
Dir
 
Spd
km/h
Gust
km/h
Spd
kts
Gust
kts
24/11:30pm 27.9 26.8 22.8 74 3.5 SW 33 43 18 23 1005.0 - 0.0
24/11:00pm 27.7 26.9 23.1 76 3.1 SW 32 39 17 21 1005.1 - 0.0
24/10:30pm 27.7 28.1 23.7 79 2.7 WSW 28 33 15 18 1005.0 - 0.0
24/10:00pm 27.8 27.7 23.6 78 2.9 WSW 30 35 16 19 1004.9 - 0.0
24/09:30pm 27.9 27.4 23.5 77 3.0 WSW 32 39 17 21 1004.8 - 0.0
24/09:00pm 28.1 26.8 23.2 74 3.4 WSW 35 43 19 23 1004.8 1004.8 0.0
24/08:30pm 28.2 26.8 22.9 73 3.6 WSW 35 43 19 23 1004.7 - 0.0

Other Formats:

Comma delimited format used in spreadsheet applications
http://www.bom.gov.au/fwo/IDW60801/IDW60801.95304.axf

JavaScript Object Notation format (JSON) in row-major order
http://www.bom.gov.au/fwo/IDW60801/IDW60801.95304.json